SL-14 R/B (18153 NORAD) Tracking and Keplerian Element Data

This shows tracking and keplerian element data for the satellite.

Feedback or suggestion? Click here.




ElementValue
Catalog18153
NameSL-14 R/B
Epoch Orbit95312
Epoch Day12.51029816
Epoch Year2024
RAAN10.2205
Inclination82.4994
Eccentricity0.0022912
Argument of Perigee93.6682
Mean Anonmoly266.7154
Mean Motion14.84153357
Decay Rate8.15E-06
L11 18153U 87055B 24012.51029816 .00000815 00000+0 94285-4 0 9999
L22 18153 82.4994 10.2205 0022912 93.6682 266.7154 14.84153357953128



Live tracking and technical data element details for SL-14 R/B (NORAD 18153). SL-14 R/B can be tracked NOW for your location showing map with azimuth and elevation plus other details from your city location.







IsCatalogInMostPopularTable: catalog: 18153, numindb: 354
Update: records affected: 1



GetName: 18153 SL-14 R/B

Hit Count: updated at: Sun, 14 Apr 2024 23:19:20 GMT